Location: Juzet
(42.9779°N, 0.7597°E)
Time: 19:11:48
(UTC+00:00)

Cosmos 1818 - Pass Details

Date: 14 July 2020
Orbit: 777 x 796 km, 65.0° (Epoch: 11 August)

Event Time Altitude Azimuth Distance (km) Brightness Sun altitude
Rises 02:58:52 0° 327° (NNW) 3,307 7.0 -13.8°
Reaches altitude 10° 03:01:19 10° 330° (NNW) 2,374 6.3 -13.5°
Maximum altitude 03:06:47 73° 55° (NE) 833 3.8 -12.8°
Drops below altitude 10° 03:12:12 10° 140° (SE) 2,356 6.0 -12.1°
Sets 03:14:37 0° 143° (SE) 3,280 6.7 -11.8°
